Location: Aufkirchen
(47.9603°N, 11.3653°E)
Time: 07:14:40
(UTC+01:00)

Transit 2A - Pass Details

Date: 01 December 2020
Orbit: 599 x 960 km, 66.7° (Epoch: 25 January)

Event Time Altitude Azimuth Distance (km) Brightness Sun altitude
Rises 20:28:42 0° 290° (WNW) 3,553 10.3 -40.1°
Reaches altitude 10° 20:32:54 10° 317° (NW) 2,543 9.2 -40.8°
Enters shadow 20:34:32 13° 333° (NNW) 2,333 8.8 -41.1°
Maximum altitude 20:35:33 13° 344° (NNW) 2,281 - -41.3°
Drops below altitude 10° 20:38:07 10° 11° (N) 2,439 - -41.7°
Sets 20:41:59 0° 39° (NE) 3,281 - -42.3°
